User: anonymous   Login
Location: Alafon
(8.4500°N, 4.2333°E)
Time: 04:31:34
(UTC+00:00)
Language:

S-56A Canister/Altair - Orbit

View from above orbital plane
View from above orbital plane
View from above satellite
View from above satellite

Ground track
Ground track

The orbit data is extracted from the following two-line orbital elements,

1 00082U 61004B   21206.93985270 -.00000118  00000-0 -70462-4 0  9990
2 00082  38.8613 144.3175 1176445 230.9461 118.0656 12.26029639857332
Epoch (UTC): 25 July 2021 22:33:23
Eccentricity: 0.1176445
inclination: 38.8613°
perigee height: 632 km
apogee height: 2501 km
right ascension of ascending node: 144.3175°
argument of perigee: 230.9461°
revolutions per day: 12.26029639
mean anomaly at epoch: 118.0656°
orbit number at epoch: 85733

The dashed part of the orbit path shows where the satellite is in the earth's shadow,  

DLR